Content
SEND FEEDBACK

Daily
Averages
Monthly
Summary
United States of America

ELMENDORF AIR FORCE BASE, ALASKA


Home > North America > United States > Alaska
Elevation: 111 feet     Latitude: 61 10N     Longitude: 149 59W

WEATHER
 
SELECT A DAY
Number of Records: 190,861;   Date Range: 1/1/95 - 9/30/14
 
SHARE

PRINT THIS DATA

[ ← Previous Day ]
WEATHER ALMANAC - JANUARY 31, 2013
[ Next Day → ]
[ °C ]   °F
Weather ElementAverageHighLow
Temperature30.2 °F33.8 °F (8:32 pm)27 °F (1:53 am)
Dewpoint27.9 °F30.2 °F (3:11 pm)24.1 °F (1:53 am)
Humidity90.9 %100 % (3:11 pm)85 % (2:53 am)
Barometer29.85 in29.95 in (11:53 pm)29.73 in (1:53 am)
Wind Speed2.2 mph8.1 mph (7:53 am)
Weather ElementAverage
Visibility1.9 mi
Wind DirectionENE (83 °)

Weather ElementTotal
Precipitation0.12 in
Heating Degree Days34.6 (Base 65)
Averaged from 50 records on January 31, 2013
WEATHER CONDITIONS BREAKOUT
WIND DIRECTION BREAKOUT
WEATHER BY HOUR - JANUARY 31, 2013
[ °C ]   °F
Local TimeTemperatureDewpointHumidityBarometerVisibilityWind DirectionWind SpeedGust SpeedPrecipitationEventsConditions
1:53 AM27.0 °F24.1 °F89 %29.73 in10.0 miCalmOvercast
2:53 AM28.0 °F24.1 °F85 %29.74 in5.0 miCalm0.01 inSnowLight Snow
3:53 AM28.0 °F25.0 °F88 %29.74 in5.0 miEast (90°)6.9 mph0.01 inSnowLight Snow
4:53 AM28.9 °F25.0 °F85 %29.75 in5.0 miCalm0.01 inSnowLight Snow
5:13 AM28.4 °F26.6 °F93 %29.75 in2.0 miCalm0.01 inSnowLight Snow
5:21 AM28.4 °F26.6 °F93 %29.74 in1.5 miCalm0.01 inSnowLight Snow
5:50 AM28.4 °F26.6 °F93 %29.75 in2.0 miEast (90°)3.5 mph0.02 inSnowLight Snow
5:53 AM28.9 °F26.1 °F89 %29.75 in2.0 miEast (80°)4.6 mph0.02 inSnowLight Snow
6:26 AM28.4 °F26.6 °F93 %29.76 in5.0 miCalm0.00 inSnowLight Snow
6:46 AM28.4 °F26.6 °F93 %29.76 in5.0 miCalm0.00 inRain-SnowLight Freezing Rain
6:53 AM28.9 °F27.0 °F92 %29.78 in5.0 miCalm0.00 inRain-SnowLight Freezing Rain
7:06 AM28.4 °F26.6 °F93 %29.78 in5.0 miNNW (330°)3.5 mph0.00 inRain-SnowLight Freezing Rain
7:53 AM28.9 °F26.1 °F89 %29.79 in3.0 miEast (80°)8.1 mph0.00 inRain-SnowLight Freezing Rain
8:53 AM30.0 °F28.0 °F92 %29.80 in7.0 miCalm0.01 inRain-SnowLight Freezing Rain
8:57 AM30.2 °F26.6 °F86 %29.79 in5.0 miCalm0.00 inLight Freezing Drizzle
9:50 AM30.2 °F28.4 °F93 %29.81 in3.0 miCalm0.00 inLight Freezing Drizzle
9:53 AM30.0 °F28.0 °F92 %29.82 in3.0 miCalm0.00 inLight Freezing Drizzle
10:07 AM30.2 °F28.4 °F93 %29.81 in2.5 miCalm0.00 inLight Freezing Drizzle
10:28 AM30.2 °F28.4 °F93 %29.83 in1.0 miNW (320°)4.6 mph0.00 inLight Freezing Drizzle
10:53 AM30.0 °F28.0 °F92 %29.84 in1.0 miCalm0.00 inLight Freezing Drizzle
11:10 AM30.2 °F26.6 °F86 %29.84 in1.5 miCalm0.00 inLight Freezing Drizzle
11:15 AM30.2 °F26.6 °F86 %29.84 in1.5 miCalm0.00 inSnowLight Freezing Drizzle
11:36 AM30.2 °F26.6 °F86 %29.85 in1.5 miCalm0.00 inSnowLight Snow
11:46 AM30.2 °F26.6 °F86 %29.85 in1.5 miENE (70°)4.6 mph0.01 inSnowLight Snow
11:53 AM30.0 °F28.0 °F92 %29.86 in1.5 miENE (70°)3.5 mph0.01 inSnowLight Snow
12:30 PM30.2 °F28.4 °F93 %29.86 in1.5 miEast (80°)3.5 mph0.00 inOvercast
12:53 PM30.0 °F28.0 °F92 %29.86 in1.5 miCalm0.00 inOvercast
1:45 PM30.2 °F28.4 °F93 %29.87 in0.5 miCalmOvercast
1:53 PM32.0 °F28.9 °F88 %29.88 in0.5 miCalmOvercast
2:49 PM30.2 °F28.4 °F93 %29.89 in0.5 miNNW (340°)3.5 mphOvercast
2:53 PM30.9 °F28.9 °F92 %29.90 in0.5 miNNW (330°)4.6 mphOvercast
3:11 PM30.2 °F30.2 °F100 %29.89 in0.5 miCalmOvercast
3:20 PM30.2 °F28.4 °F93 %29.89 in0.5 miCalmOvercast
3:53 PM32.0 °F30.0 °F92 %29.90 in0.5 miENE (70°)3.5 mphOvercast
4:47 PM30.2 °F28.4 °F93 %29.89 in0.2 miCalmFogLight Freezing Fog
4:53 PM30.0 °F28.0 °F92 %29.90 in0.2 miCalmFogLight Freezing Fog
5:18 PM30.2 °F28.4 °F93 %29.90 in0.2 miNNW (340°)3.5 mphFogLight Freezing Fog
5:31 PM30.2 °F28.4 °F93 %29.90 in0.2 miCalmFogLight Freezing Fog
5:53 PM30.9 °F28.9 °F92 %29.91 in0.2 miNNE (20°)3.5 mphFogLight Freezing Fog
6:07 PM30.2 °F28.4 °F93 %29.90 in0.5 miNNW (340°)4.6 mphFogLight Freezing Fog
6:50 PM30.2 °F30.2 °F100 %29.90 in0.2 miCalmFogLight Freezing Fog
6:53 PM30.9 °F30.0 °F96 %29.91 in0.2 miCalmFogLight Freezing Fog
7:53 PM32.0 °F30.0 °F92 %29.92 in0.2 miNE (40°)6.9 mphFogFog
8:32 PM33.8 °F30.2 °F87 %29.92 in0.2 miNorth (350°)4.6 mphFogFog
8:51 PM33.8 °F30.2 °F87 %29.92 in0.2 miNorth (360°)5.8 mphFogFog
8:53 PM33.1 °F30.0 °F89 %29.92 in0.2 miNorth (360°)4.6 mphFogFog
9:53 PM33.1 °F30.0 °F89 %29.93 in0.2 miVariable6.9 mphFogFog
10:53 PM32.0 °F28.9 °F88 %29.94 in0.2 miNorth (10°)4.6 mphOvercast
11:39 PM32.0 °F28.4 °F87 %29.93 in1.0 miNNE (20°)4.6 mphOvercast
11:53 PM32.0 °F28.9 °F88 %29.95 in1.0 miNorth (360°)3.5 mphOvercast
Hourly data recorded from PANC, located miles away from Elmendorf Air Force Base, Alaska







STORIES FROM OUR PARTNERS